This is the latest recevied weather packets stored in our database for station/object KJ7IVE-13. If no packets are shown the sender has not sent any weather packets the latest 1 day(s).
| Time | Temp. | Humidity | Pressure | Rain* | Wind** | Luminosity | Snow |
|---|---|---|---|---|---|---|---|
| 1777997097 | 13.33° C | 10% | 1011.3 hPa | 0 mm | 3.13 m/s, 179° | 133 W/m² | - |
| 1777996794 | 13.33° C | 10% | 1011.3 hPa | 0 mm | 4.02 m/s, 176° | 121 W/m² | - |
| 1777996490 | 13.33° C | 10% | 1011.4 hPa | 0 mm | 5.36 m/s, 196° | 114 W/m² | - |
| 1777996187 | 13.89° C | 10% | 1011.4 hPa | 0 mm | 2.68 m/s, 171° | 134 W/m² | - |
| 1777995883 | 13.89° C | 10% | 1011.3 hPa | 0 mm | 5.81 m/s, 197° | 126 W/m² | - |
| 1777995579 | 13.89° C | 10% | 1010.8 hPa | 0 mm | 2.24 m/s, 185° | 136 W/m² | - |
| 1777995277 | 13.89° C | 10% | 1010.9 hPa | 0 mm | 4.02 m/s, 194° | 180 W/m² | - |
| 1777994974 | 13.89° C | 10% | 1011 hPa | 0 mm | 2.68 m/s, 209° | 145 W/m² | - |
| 1777994666 | 13.89° C | 10% | 1011.1 hPa | 0 mm | 1.79 m/s, 187° | 92 W/m² | - |
| 1777994365 | 13.89° C | 10% | 1010.9 hPa | 0 mm | 3.13 m/s, 125° | 76 W/m² | - |
| 1777994061 | 13.89° C | 10% | 1010.7 hPa | 0 mm | 2.24 m/s, 187° | 82 W/m² | - |
| 1777993759 | 13.89° C | 10% | 1010.9 hPa | 0 mm | 2.68 m/s, 147° | 58 W/m² | - |
| 1777993456 | 13.89° C | 10% | 1010.9 hPa | 0 mm | 2.24 m/s, 183° | 46 W/m² | - |
| 1777993150 | 13.89° C | 10% | 1010.8 hPa | 0 mm | 3.13 m/s, 187° | 42 W/m² | - |
| 1777992848 | 13.89° C | 10% | 1010.7 hPa | 0 mm | 2.24 m/s, 217° | 39 W/m² | - |
| 1777992546 | 13.89° C | 10% | 1010.6 hPa | 0 mm | 4.47 m/s, 193° | 41 W/m² | - |
| 1777992244 | 13.89° C | 10% | 1010.6 hPa | 0 mm | 1.79 m/s, 173° | 46 W/m² | - |
| 1777991941 | 13.89° C | 10% | 1010.5 hPa | 0 mm | 1.34 m/s, 180° | 43 W/m² | - |
| 1777991638 | 13.89° C | 10% | 1010.5 hPa | 0 mm | 2.24 m/s, 187° | 39 W/m² | - |
| 1777991335 | 13.89° C | 10% | 1010.2 hPa | 0 mm | 2.68 m/s, 184° | 37 W/m² | - |
| 1777991033 | 13.89° C | 10% | 1010.6 hPa | 0 mm | 3.13 m/s, 201° | 33 W/m² | - |
| 1777990730 | 13.89° C | 10% | 1010.5 hPa | 0 mm | 1.34 m/s, 166° | 31 W/m² | - |
| 1777990427 | 13.89° C | 10% | 1010.6 hPa | 0 mm | 3.13 m/s, 185° | 30 W/m² | - |
| 1777990123 | 13.89° C | 10% | 1010.3 hPa | 0 mm | 1.34 m/s, 172° | 29 W/m² | - |
| 1777989820 | 13.89° C | 10% | 1010.2 hPa | 0 mm | 2.24 m/s, 192° | 29 W/m² | - |
* Rain latest hour (hover to see other rain measurements)
** Current wind speed in m/s (hover to see current wind gust speed)